Covington, KY

5:15 PM EST on December 08, 2019 (GMT -0500)
Cincinnati-Northern KY International

Weather History for KCVG - October, 2019

Change the Weather History Date:

Saturday, October 26, 2019

  Actual Average Record
Temperature  
Mean Temperature 58 °F 53 °F  
Max Temperature 66 °F 63 °F 82 °F (1963)
Min Temperature 51 °F 43 °F 19 °F (1962)
Degree Days  
Heating Degree Days 6 13  
Month to date heating degree days 157 236  
Since 1 July heating degree days 157 294  
Cooling Degree Days 0 0  
Month to date cooling degree days 55 16  
Year to date cooling degree days 1497 1121  
Growing Degree Days 8 (Base 50)    
Moisture  
Dew Point 54 °F    
Average Humidity 89    
Maximum Humidity 96    
Minimum Humidity 77    
Precipitation  
Precipitation 1.06 in 0.11 in 1.27 in (2010)
Month to date precipitation 2.21 2.76  
Year to date precipitation 44.63 35.18  
Snow  
Snow 0.00 in 0.00 in 0.00 in ()
Month to date snowfall 0.0 0.3  
Since 1 July snowfall 0.0 0.3  
Since 1 September snowfall 0.0 0.3  
Snow Depth 0.00 in    
Sea Level Pressure  
Sea Level Pressure 29.82 in    
Wind  
Wind Speed 11 mph ()    
Max Wind Speed 23 mph    
Max Gust Speed 30 mph    
Visibility 6.8 miles    
Events Rain    
T = Trace of Precipitation, MM = Missing Value Source: Averaged Metar Reports

Daily Weather History Graph

Daily Weather History Graph

Search for Another Location

Airport or City:

Astronomy

Oct. 26, 2019 Rise Set
Actual Time 7:59 AM EDT 6:45 PM EDT
Civil Twilight 7:31 AM EDT 7:12 PM EDT
Nautical Twilight 7:00 AM EDT 7:43 PM EDT
Astronomical Twilight 6:29 AM EDT 8:14 PM EDT
Moon 5:55 AM EDT (10/26) 6:19 PM EDT (10/26)
Length of Visible Light 11h 40m
Length of Day
10h 45m
Waning Crescent, 3% of the Moon is Illuminated
Oct 26
Waning Crescent
Oct 27
New
Nov 4
First Quarter
Nov 12
Full
Nov 19
Last Quarter

Hourly Weather History & Observations

Time (EDT) Temp. Dew Point Humidity Pressure Visibility Wind Dir Wind Speed Gust Speed Precip Events Conditions
12:52 AM 54.0 °F 46.9 °F 77% 30.15 in 10.0 mi East 4.6 mph - N/A   Overcast
4:52 AM 54.0 °F 48.0 °F 80% 30.09 in 10.0 mi NE 6.9 mph - 0.00 in Rain Light Rain
5:52 AM 53.1 °F 48.0 °F 83% 30.07 in 8.0 mi ENE 9.2 mph - 0.01 in Rain Light Rain
6:41 AM 52.0 °F 48.0 °F 86% 30.05 in 6.0 mi East 13.8 mph - 0.02 in Rain Light Rain
6:52 AM 52.0 °F 48.0 °F 86% 30.04 in 6.0 mi East 12.7 mph - 0.02 in Rain Light Rain
7:52 AM 51.1 °F 48.9 °F 92% 30.01 in 3.0 mi East 11.5 mph - 0.07 in Rain Heavy Rain
8:35 AM 52.0 °F 48.9 °F 89% 30.00 in 3.0 mi East 11.5 mph - 0.05 in Rain Light Rain
8:52 AM 52.0 °F 50.0 °F 93% 29.99 in 2.0 mi East 13.8 mph - 0.06 in Rain Light Rain
9:13 AM 53.1 °F 50.0 °F 89% 29.99 in 1.5 mi East 15.0 mph - 0.05 in Rain Heavy Rain
9:52 AM 53.1 °F 51.1 °F 93% 29.97 in 2.0 mi East 16.1 mph - 0.16 in Rain Rain
10:52 AM 54.0 °F 51.1 °F 90% 29.94 in 2.0 mi East 15.0 mph - 0.25 in Rain Heavy Rain
11:10 AM 54.0 °F 51.1 °F 90% 29.93 in 4.0 mi East 16.1 mph - 0.06 in Rain Light Rain
11:52 AM 55.0 °F 52.0 °F 89% 29.91 in 10.0 mi East 16.1 mph - 0.11 in Rain Light Rain
12:52 PM 55.0 °F 53.1 °F 93% 29.88 in 8.0 mi East 11.5 mph - 0.02 in Rain Light Rain
1:52 PM 57.0 °F 54.0 °F 89% 29.82 in 10.0 mi East 12.7 mph 20.7 mph 0.00 in Rain Light Rain
2:52 PM 57.0 °F 55.0 °F 93% 29.76 in 9.0 mi ESE 11.5 mph - 0.02 in Rain Light Rain
3:52 PM 57.9 °F 55.0 °F 90% 29.73 in 10.0 mi ESE 11.5 mph - 0.01 in Rain Light Rain
4:52 PM 60.1 °F 55.9 °F 86% 29.69 in 7.0 mi ESE 18.4 mph 25.3 mph 0.06 in Rain Light Rain
5:52 PM 61.0 °F 57.0 °F 87% 29.65 in 6.0 mi ESE 16.1 mph 26.5 mph 0.04 in Rain Light Rain
6:52 PM 61.0 °F 57.9 °F 90% 29.63 in 10.0 mi SE 20.7 mph 27.6 mph 0.01 in   Overcast
7:52 PM 62.1 °F 59.0 °F 90% 29.61 in 8.0 mi SE 16.1 mph 23.0 mph 0.00 in   Drizzle
8:52 PM 63.0 °F 60.1 °F 90% 29.60 in 5.0 mi SE 12.7 mph - 0.11 in Rain Light Rain
9:20 PM 64.0 °F 60.1 °F 87% 29.59 in 10.0 mi SSE 17.3 mph 26.5 mph 0.00 in   Overcast
9:52 PM 64.0 °F 61.0 °F 90% 29.59 in 2.5 mi SSE 16.1 mph - 0.08 in Rain Heavy Rain
9:59 PM 64.0 °F 61.0 °F 90% 29.60 in 7.0 mi South 16.1 mph - 0.02 in Rain Rain
10:52 PM 64.0 °F 61.0 °F 90% 29.57 in 10.0 mi South 12.7 mph - 0.03 in   Overcast
11:13 PM 64.9 °F 62.1 °F 90% 29.60 in 10.0 mi South 17.3 mph 24.2 mph 0.00 in Rain Light Rain
11:52 PM 64.9 °F 61.0 °F 87% 29.61 in 10.0 mi SW 11.5 mph - 0.00 in   Overcast